Regional Weather Roundup
Issued by NWS

Home | Current Version | Previous Version | Text Only | Print | Product List | Glossary On
Versions: 1 2 3 4 5 6 7 8 9 10 11 12 13 14 15 16 17 18 19 20 21 22 23 24 25 26 27 28 29 30 31 32 33 34 35 36 37 38 39 40 41 42 43 44 45 46 47 48 49 50
000
ASUS43 KMKX 020920
RWRWI

WISCONSIN REGIONAL WEATHER ROUNDUP
NATIONAL WEATHER SERVICE MILWAUKEE/SULLIVAN WI
400 AM CDT THU APR 02 2015

NOTE: "FAIR" INDICATES FEW OR NO CLOUDS BELOW 12,000 FEET WITH NO
SIGNIFICANT WEATHER AND/OR OBSTRUCTIONS TO VISIBILITY.

WIZ001-002-006>008-014>016-023>028-021000-
NORTHWEST WISCONSIN

CITY           SKY/WX    TMP DP  RH WIND       PRES   REMARKS
SUPERIOR ARPT  CLOUDY    49  40  70 W15G22    29.58R
ASHLAND        CLOUDY    52  42  69 W7        29.55R
HAYWARD        CLOUDY    50  44  80 SW3       29.58R
SIREN          CLOUDY    49  40  71 NW12      29.63R
CUMBERLAND     CLOUDY    48  41  76 W14       29.62R
RICE LAKE      CLOUDY    51  44  76 W7        29.62S
CHETEK         CLOUDY    52  46  78 W7        29.60S
LADYSMITH      CLOUDY    54  51  92 W9        29.59S
EAU CLAIRE     CLOUDY    54  49  83 W10       29.60R
MENOMONIE      CLOUDY    55  46  71 W12       29.62S
NEW RICHMOND   CLOUDY    50  39  66 W15       29.65S
OSCEOLA        CLOUDY    50  39  67 W10       29.68R
$$

WIZ003>005-009-010-017-018-021000-
NORTH CENTRAL WISCONSIN

CITY           SKY/WX    TMP DP  RH WIND       PRES   REMARKS
MANITOWISH WTR DRIZZLE   52  52  99 W13       29.54F
ARBOR VITAE    CLOUDY    52  49  92 W8        29.54F
WOODRUFF       CLOUDY    52  49  92 W8        29.54F
RHINELANDER    CLOUDY    52  48  86 SW9       29.55F
EAGLE RIVER    CLOUDY    50  46  85 W9        29.52F
LAND O LAKES   CLOUDY    52  47  83 W7        29.53S
PHILLIPS       CLOUDY    52  51  96 W9        29.55F
TOMAHAWK       CLOUDY    52  49  91 CALM      29.56R
MEDFORD        LGT RAIN  54  51  90 SW14G21   29.58R
MERRILL        CLOUDY    53  49  86 SW8       29.55F
$$

WIZ029-030-035-036-043>047-021000-
CENTRAL WISCONSIN

CITY           SKY/WX    TMP DP  RH WIND       PRES   REMARKS
WAUSAU         CLOUDY    56  46  69 SW9       29.55F
MOSINEE        CLOUDY    52  45  76 S6        29.57F
MARSHFIELD     CLOUDY    54  47  77 W7        29.59F
STEVENS POINT  CLOUDY    56  37  49 S10       29.58F
WAUPACA        CLOUDY    58  38  47 S10       29.59F
WAUTOMA        CLOUDY    59  39  47 S12       29.61F
WISC RAPIDS    CLOUDY    58  36  43 S9        29.59F
CAMP DOUGLAS   CLOUDY    59  40  49 S13       29.58F
$$

WIZ011>013-019>022-031-037>040-048>050-021000-
NORTHEAST WISCONSIN

CITY           SKY/WX    TMP DP  RH WIND       PRES   REMARKS
ANTIGO         LGT RAIN  52  43  71 SW10      29.55F
SHAWANO        CLOUDY    57  39  51 S3        29.57F
OCONTO         CLOUDY    57  41  54 SW10G21   29.58F
STURGEON BAY   CLOUDY    54  39  58 SW18      29.60F
GREEN BAY      CLOUDY    55  41  59 SW17G24   29.60F
MANITOWOC      MOCLDY    59  40  49 SW15      29.66F
APPLETON       CLOUDY    54  37  54 S23G29    29.61F
CLINTONVILLE   CLOUDY    55  37  50 S8        29.58F
OSHKOSH        CLOUDY    55  40  56 S18G26    29.63F
$$

WIZ032>034-041-042-053>061-021000-
SOUTHWEST WISCONSIN

CITY           SKY/WX    TMP DP  RH WIND       PRES   REMARKS
LA CROSSE      CLOUDY    61  50  67 W13       29.62R
SPARTA         CLOUDY    58  39  49 SW3       29.62S
VIROQUA        CLOUDY    54  40  59 SW7       29.63R
BOSCOBEL       CLOUDY    60  42  51 VRB7      29.63F
PRAIRIE DU CHI CLOUDY    57  42  56 E5        29.61F
PLATTEVILLE    CLOUDY    56  41  58 SE5       29.66F
$$

WIZ056-057-062-063-064-067-068-021000-
SOUTH CENTRAL WISCONSIN

CITY           SKY/WX    TMP DP  RH WIND       PRES   REMARKS
REEDSBURG      MOCLDY    56  41  57 S9        29.61F
BARABOO/DELLS  MOCLDY    55  39  53 S10       29.62F
LONE ROCK      CLOUDY    57  40  52 NE3       29.63F
MINERAL POINT  CLOUDY    55  37  50 S5        29.66F
MADISON        MOCLDY    55  39  54 S9        29.67F
MIDDLETON      MOCLDY    56  38  50 S8        29.66F
WATERTOWN      MOCLDY    54  39  58 S6        29.69F
MONROE         CLOUDY    52  41  66 E3        29.67F
JANESVILLE     CLOUDY    55  37  50 CALM      29.69F
$$

WIZ051-052-058>065-066-070>072-021000-
SOUTHEAST WISCONSIN

CITY           SKY/WX    TMP DP  RH WIND       PRES   REMARKS
MILWAUKEE      MOCLDY    56  35  45 S9        29.72F
WAUKESHA       CLOUDY    54  36  50 S7        29.73S
MILWAUKEE/TIMM MOCLDY    59  32  36 SW13G22   29.73R
RACINE         MOCLDY    47  35  63 SE6       29.73F
BURLINGTON     PTCLDY    52  36  53 SW9       29.71F
KENOSHA        MOCLDY    57  36  45 S13       29.71F
FOND DU LAC    CLOUDY    55  39  54 S15G26    29.65F
SHEBOYGAN      MOCLDY    54  38  54 S9        29.69F
WEST BEND      MOCLDY    55  34  44 SW15      29.70F
JUNEAU         CLOUDY    52  39  62 SE7       29.69F
$$

LSZ147-162-021000-
LAKE SUPERIOR

STATION/POSITION TIME  TEMP    WIND        PRES    WAVE
                       AIR SEA DIR/SP/G            HT/PER
                 (UTC) (F)     (DEG/KT/KT) (MB)    (FT/S)
DEVILS ISLAND    0900   44     240/ 20/ 22  999.3F
PORT WING        0900   48     250/ 13/ 19 1001.0R
SAXON HARBOR     0800   58     270/ 13/ 21 1000.0R
$$

LMZ867-665-643>646-021000-
LAKE MICHIGAN

STATION/POSITION TIME  TEMP    WIND        PRES    WAVE
                       AIR SEA DIR/SP/G            HT/PER
                 (UTC) (F)     (DEG/KT/KT) (MB)    (FT/S)
NORTHPORT PIER   0900   42     160/  8/ 15 1002.0F
SISTER BAY       0817   48     180/ 15/ 19   N/A
KEWAUNEE LAKESHO 0800   50     190/ 13/ 15 1003.5R
SHEBOYGAN LAKESH 0900   46     190/ 11/ 12 1006.2F
PORT WASHINGTON  0840   42     180/  9/ 12 1006.8F
MILWAUKEE LAKESH 0900   42     140/  2/  3   N/A
KENOSHA   LAKESH 0900   47     180/ 15/ 17 1006.4F
$$

TC  - TEMPERATURE IN CELSIUS
VSB - VISIBILITY IN STATUTE MILES
WCI - WIND CHILL INDEX
HX  - HEAT INDEX



USA.gov is the U.S. government's official web portal to all federal, state and local government web resources and services.